Regional Weather Roundup
Issued by NWS

Home | Current Version | Previous Version | Graphics & Text | Print | Product List | Glossary On
Versions: 1 2 3 4 5 6 7 8 9 10 11 12 13 14 15 16 17 18 19 20 21 22 23 24 25 26 27 28 29 30 31 32 33 34 35 36 37 38 39 40 41 42 43 44 45 46 47 48 49 50
000
ASUS45 KTFX 200319
RWRMT
MONTANA HOURLY WEATHER ROUNDUP
NATIONAL WEATHER SERVICE GREAT FALLS MT
919 PM MDT SUN OCT 19 2014

NOTE: "FAIR" INDICATES FEW OR NO CLOUDS BELOW 12000 FEET WITH NO
SIGNIFICANT WEATHER AND/OR OBSTRUCTIONS TO VISIBILITY.

* THESE STATIONS ARE NOT UNDER NWS QUALITY CONTROL. THEY DO NOT
   REPORT WEATHER SUCH AS PRECIPITATION OR FOG.

MTZ001>007-043-200400-
WEST OF THE DIVIDE
CITY           SKY/WX    TMP DP  RH WIND       PRES   REMARKS
KALISPELL      CLEAR     43  39  86 CALM      29.90F
MISSOULA       CLEAR     48  39  71 CALM      29.92S
BUTTE          CLEAR     43  30  60 S6        30.04R
MULLAN PASS    PTCLDY    48  36  63 VRB5      29.98F
* ESSEX        N/A       43  40  89 E1         N/A
* LINCOLN      N/A       45  34  65 N2         N/A
* POLSON       N/A       49  39  69 SE2        N/A
* RONAN APT    CLEAR     43  37  79 N/A        N/A
* SEELEY LAKE  N/A       43  35  73 NE1        N/A
* THOMP F APT  CLEAR     46  22  39 N4         N/A
$$

MTZ008-052>055-200400-
SOUTHWEST MONTANA
CITY           SKY/WX    TMP DP  RH WIND       PRES   REMARKS
BOZEMAN        CLEAR     46  36  68 S8        30.00F
DILLON         CLEAR     52  27  38 CALM      30.01S
W YELLOWSTONE  CLEAR     34  23  64 CALM      30.16S
* THREE FORKS  CLEAR     46  43  89 N/A        N/A
* BOULDER HILL N/A       53  27  37 S6         N/A
* MONIDA PASS  N/A       46  26  46 SE9        N/A
* RAYNOLDS PAS N/A       43  30  60 SW6G11     N/A
* WHITEHALL    N/A       50  30  46 N9         N/A
* WISE RIVER   N/A       47  29  50 S3G8       N/A
$$

MTZ009>010-012-014-046-048-049-054-200400-
EAST SLOPES AND CENTRAL MONTANA
CITY           SKY/WX    TMP DP  RH WIND       PRES   REMARKS
CUT BANK       CLEAR     52  28  40 W7        29.88F
GREAT FALLS    CLEAR     54  34  47 S10       29.90S
HELENA         CLEAR     52  37  57 CALM      29.94S
MALMSTROM AFB  CLEAR     52  34  50 E2        29.92R
* CONRAD       CLEAR     45  30  56 S5         N/A
* DEARBORN     N/A       55  34  45 S2         N/A
* EAST GLACIER N/A       57  32  39 W21G29     N/A
* MONARCH      N/A       53  26  35 S9G14      N/A
* PENDROY      N/A       52  31  45 W6         N/A
* ROGERS PASS  N/A       56  31  39 S1G8       N/A
* SAINT MARY   N/A       58  31  36 S7G18      N/A
* SWEET GRASS  N/A       58  30  35 SW17       N/A
* WHITE SULPH  N/A       48  27  44 NE8        N/A
$$

MTZ011-013-016-021-035-040-045-047-050-051-200400-
NORTH CENTRAL MONTANA
CITY           SKY/WX    TMP DP  RH WIND       PRES   REMARKS
HAVRE          CLEAR     52  43  72 CALM      29.86F
LEWISTOWN      CLEAR     48  36  63 SE9       29.96S
* CHINOOK      CLEAR     52  41  66 E8        29.88F
* FORT BENTON  CLEAR     57  39  51 CALM      29.89S
* CHESTER      N/A       55  37  51 SE4G10     N/A
* DENTON       N/A       51  36  57 SW6G14     N/A
* GEYSER       N/A       45  32  60 SW9        N/A
* JUDITH GAP   N/A       46  34  63 SW6        N/A
* LOMA         N/A       58  41  53 E7G12      N/A
$$

MTZ017>020-022>027-061-062-200400-
NORTHEAST MONTANA
CITY           SKY/WX    TMP DP  RH WIND       PRES   REMARKS
GLASGOW        CLEAR     52  39  61 E13       29.94S
GLENDIVE       MOCLDY    50  36  59 CALM      30.01S
JORDAN         CLEAR     52  37  57 E6        29.96S
SIDNEY         CLEAR     45  36  71 CALM      30.01S
WOLF POINT     PTCLDY    45  37  74 NE3       29.97S
* BEAVER HILL  N/A       51  37  59 SE9        N/A
* CIRCLE       N/A       53  40  62 N/A        N/A
* LINDSAY DVD  N/A       49  36  61 S2         N/A
* NAVAJO       N/A       49  38  66 SW8        N/A
* SACO         N/A       52  43  72 E10        N/A
$$

MTZ028>042-056>058-200400-
SOUTHCENTRAL AND SOUTHEAST MONTANA
CITY           SKY/WX    TMP DP  RH WIND       PRES   REMARKS
BAKER          CLEAR     45  34  65 CALM      30.04S
BILLINGS       CLEAR     63  36  37 S3        29.98F
LIVINGSTON     CLEAR     46  32  58 CALM      30.00S
MILES CITY     CLEAR     54  37  53 SE7       29.99R
* LAUREL APT   CLEAR     61  34  36 N/A        N/A
* ROUNDUP APT  CLEAR     59  34  39 S6         N/A
* ALZADA       N/A       52  38  59 E5         N/A
* HYSHAM       N/A       64  28  26 SE3G8      N/A
* LAME DEER    N/A       60  34  38 SE7        N/A
* REED POINT   N/A       47  32  56 E1         N/A
* ROSCOE HILL  N/A       54  24  31 SW8        N/A
$$

REGIONAL REPORTS...DAKOTAS
CITY           SKY/WX    TMP DP  RH WIND       PRES   REMARKS
WILLISTON      CLEAR     45  36  71 CALM      29.99S
DICKINSON      PTCLDY    43  34  71 S7        30.02S
BEACH          N/A       41  37  86 SE3       30.04S
CROSBY         CLEAR     43  39  86 SW9       29.98F
TIOGA          CLEAR     37  34  89 CALM      30.03S
BISMARCK       CLEAR     46  37  71 CALM      30.01S
GRAND FORKS    CLEAR     46  37  71 NW8       29.90R
FARGO          CLEAR     46  37  71 W3        29.91R
BUFFALO SD     CLEAR     52  36  55 CALM      29.99S
RAPID CITY     CLEAR     46  37  71 NW3       30.08R
$$

REGIONAL REPORTS...WYOMING/IDAHO/WASHINGTON
CITY           SKY/WX    TMP DP  RH WIND       PRES   REMARKS
GILLETTE       CLEAR     54  37  53 S8        30.09S
SHERIDAN       CLEAR     45  34  65 CALM      30.03S
CODY           CLEAR    N/A N/A N/A S6        30.06S
YELLOWSTONE LA CLEAR     30  23  75 CALM      30.24R
MULLAN PASS    PTCLDY    48  36  63 VRB5      29.98S
SAND POINT     PTCLDY    46  46 100 CALM      29.85R
SPOKANE        FAIR      61  48  62 E8        29.80F
$$

REGIONAL REPORTS...ALBERTA
CITY           SKY/WX    TMP DP  RH WIND       PRES   REMARKS
CALGARY        PTCLDY    57  32  39 SW9       29.71F
LETHBRIDGE     MOCLDY    50  37  61 S17       29.81S
MEDICINE HAT   PTCLDY    57  39  51 SW9       29.80S
EDMONTON       MOCLDY    48  36  63 SE7       29.62F
WATERTON GATE  N/A       57  36  46 SW13G21    N/A
CARDSTON       N/A       54  36  51 SW8        N/A
MILK RIVER     N/A       50  34  54 W7         N/A
$$

REGIONAL REPORTS...SASKATCHEWAN
CITY           SKY/WX    TMP DP  RH WIND       PRES   REMARKS
SWIFT CURRENT  CLEAR     48  39  71 S13       29.87F
REGINA         FAIR      46  39  77 SE9       29.93S
VAL MARIE      N/A       52  43  72 SE10       N/A
ASSINIBOIA     N/A       50  41  71 S8         N/A
CORONACH       N/A       46  36  68 SE3        N/A

$$




USA.gov is the U.S. government's official web portal to all federal, state and local government web resources and services.